Voltar ao catálogo

COSMOS 2251 DEB

AtivoLEO
NORAD 34685·DEBRIS·🇷🇺 Russia

Lançado Jun 16, 1993 de Plesetsk Cosmodrome

Loading…

Próximas Passagens (próximas 24 horas)

TLE

AtualizadoSource: Space-Track

Época: Sep 14, 2026, 06:11 UTC

1 34685U 93036YF  26257.25819338  .00001957  00000-0  41806-3 0  9992
2 34685  74.0305 343.9418 0014271  12.2387  18.6016 14.59484699925497

Acompanhe COSMOS 2251 DEB em tempo real com AllMySat

Download on the App Store